,,,PA_Meas_PMT16A,,PR_Meas_QMR101_102,,RH_Meas_QMH101,,SR_Meas_QMS101,,TA_Meas_QMH101,,GenWind,,GenWind,
date,time,status,PA,status,PR,status,RH,status,SR,status,TA,status,DirAvg,status,SpdAvg,
2010-05-09, 00:00:05,VALID,1001.49,VALID,0,VALID,88.9375,VALID,0,VALID,25.6506,VALID,2,VALID,2.41484,
2010-05-09, 00:01:05,VALID,1001.51,VALID,0,VALID,88.9604,VALID,0,VALID,25.6525,VALID,348,VALID,2.25391,
2010-05-09, 00:02:05,VALID,1001.52,VALID,0,VALID,89.296,VALID,0,VALID,25.633,VALID,6,VALID,1.54414,
2010-05-09, 00:03:05,VALID,1001.53,VALID,0,VALID,89.6775,VALID,0,VALID,25.5941,VALID,3,VALID,2.20195,
2010-05-09, 00:04:05,VALID,1001.57,VALID,0,VALID,90.2191,VALID,0,VALID,25.5727,VALID,359,VALID,2.00391,
2010-05-09, 00:05:05,VALID,1001.59,VALID,0,VALID,90.7608,VALID,0,VALID,25.5142,VALID,19,VALID,3.66563,
2010-05-09, 00:06:05,VALID,1001.63,VALID,0,VALID,91.0659,VALID,0,VALID,25.5142,VALID,24,VALID,1.68828,
2010-05-09, 00:07:05,VALID,1001.62,VALID,0,VALID,91.2567,VALID,0,VALID,25.5142,VALID,13,VALID,3.16094,
2010-05-09, 00:08:05,VALID,1001.65,VALID,0,VALID,91.3253,VALID,0,VALID,25.4948,VALID,2,VALID,1.75156,
2010-05-09, 00:09:05,VALID,1001.68,VALID,0,VALID,92.0424,VALID,0,VALID,25.4967,VALID,10,VALID,1.89375,
2010-05-09, 00:10:05,VALID,1001.7,VALID,0,VALID,91.7449,VALID,0,VALID,25.4539,VALID,28,VALID,2.6543,
2010-05-09, 00:11:05,VALID,1001.7,VALID,0,VALID,92.1187,VALID,0,VALID,25.4558,VALID,11,VALID,1.32852,
2010-05-09, 00:12:05,VALID,1001.66,VALID,0,VALID,92.1569,VALID,0,VALID,25.4558,VALID,12,VALID,1.58398,
2010-05-09, 00:13:05,VALID,1001.68,VALID,0,VALID,92.4468,VALID,0,VALID,25.4363,VALID,4,VALID,1.13047,
2010-05-09, 00:14:05,VALID,1001.65,VALID,0,VALID,92.7214,VALID,0,VALID,25.4383,VALID,357,VALID,1.60039,
2010-05-09, 00:15:05,VALID,1001.69,VALID,0,VALID,93.141,VALID,0,VALID,25.4169,VALID,6,VALID,1.59258,
2010-05-09, 00:16:05,VALID,1001.68,VALID,0,VALID,93.3394,VALID,0,VALID,25.3779,VALID,14,VALID,2.08555,
2010-05-09, 00:17:05,VALID,1001.68,VALID,0,VALID,93.4004,VALID,0,VALID,25.337,VALID,13,VALID,1.71758,
2010-05-09, 00:18:05,VALID,1001.67,VALID,0,VALID,93.5835,VALID,0,VALID,25.3176,VALID,2,VALID,1.53203,
2010-05-09, 00:19:05,VALID,1001.65,VALID,0,VALID,93.7361,VALID,0,VALID,25.3195,VALID,2,VALID,1.40234,
2010-05-09, 00:20:05,VALID,1001.64,VALID,0,VALID,93.8734,VALID,0,VALID,25.2806,VALID,355,VALID,1.31016,
2010-05-09, 00:21:05,VALID,1001.62,VALID,0,VALID,93.9191,VALID,0,VALID,25.2592,VALID,358,VALID,1.58203,
2010-05-09, 00:22:05,VALID,1001.63,VALID,0,VALID,94.0336,VALID,0,VALID,25.2397,VALID,17,VALID,1.33945,
2010-05-09, 00:23:05,VALID,1001.6,VALID,0,VALID,94.1404,VALID,0.100563,VALID,25.2202,VALID,352,VALID,1.0043,
2010-05-09, 00:24:05,VALID,1001.57,VALID,0,VALID,94.1251,VALID,0,VALID,25.2027,VALID,359,VALID,2.02891,
2010-05-09, 00:25:05,VALID,1001.54,VALID,0,VALID,94.1556,VALID,0,VALID,25.1813,VALID,357,VALID,1.01094,
2010-05-09, 00:26:05,VALID,1001.54,VALID,0,VALID,94.1862,VALID,0,VALID,25.1813,VALID,2,VALID,1.80781,
2010-05-09, 00:27:05,VALID,1001.5,VALID,0,VALID,94.1862,VALID,0,VALID,25.1832,VALID,346,VALID,1.64375,
2010-05-09, 00:28:05,VALID,1001.5,VALID,0,VALID,94.1175,VALID,0,VALID,25.1832,VALID,355,VALID,2.54688,
2010-05-09, 00:29:05,VALID,1001.48,VALID,0,VALID,94.0259,VALID,0,VALID,25.1618,VALID,353,VALID,2.17734,
2010-05-09, 00:30:05,VALID,1001.47,VALID,0,VALID,93.9344,VALID,0,VALID,25.1618,VALID,4,VALID,2.15039,
2010-05-09, 00:31:05,VALID,1001.46,VALID,0,VALID,93.8734,VALID,0,VALID,25.1637,VALID,358,VALID,1.96602,
2010-05-09, 00:32:05,VALID,1001.45,VALID,0,VALID,93.614,VALID,0,VALID,25.1637,VALID,3,VALID,2.46719,
2010-05-09, 00:33:05,VALID,1001.44,VALID,0,VALID,93.1944,VALID,0,VALID,25.1637,VALID,354,VALID,2.30898,
2010-05-09, 00:34:05,VALID,1001.42,VALID,0,VALID,93.141,VALID,0,VALID,25.1813,VALID,7,VALID,2.48086,
2010-05-09, 00:35:05,VALID,1001.38,VALID,0,VALID,92.9045,VALID,0.100563,VALID,25.1637,VALID,357,VALID,2.89453,
2010-05-09, 00:36:05,VALID,1001.37,VALID,0,VALID,92.9274,VALID,0,VALID,25.1618,VALID,359,VALID,1.89844,
2010-05-09, 00:37:05,VALID,1001.3,VALID,0,VALID,92.1111,VALID,0,VALID,25.1229,VALID,342,VALID,2.73477,
2010-05-09, 00:38:05,VALID,1001.33,VALID,0,VALID,91.989,VALID,0,VALID,25.1442,VALID,351,VALID,1.9125,
2010-05-09, 00:39:05,VALID,1001.33,VALID,0,VALID,92.0653,VALID,0,VALID,25.1034,VALID,355,VALID,1.93359,
2010-05-09, 00:40:05,VALID,1001.29,VALID,0,VALID,91.6381,VALID,0,VALID,25.1248,VALID,350,VALID,1.54141,
2010-05-09, 00:41:05,VALID,1001.26,VALID,0,VALID,91.1651,VALID,0,VALID,25.0839,VALID,354,VALID,2.61445,
2010-05-09, 00:42:05,VALID,1001.29,VALID,0,VALID,90.3641,VALID,0,VALID,25.1248,VALID,353,VALID,1.89766,
2010-05-09, 00:43:05,VALID,1001.28,VALID,0,VALID,90.2802,VALID,0,VALID,25.1248,VALID,16,VALID,2.87422,
2010-05-09, 00:44:05,VALID,1001.24,VALID,0,VALID,90.5472,VALID,0,VALID,25.1034,VALID,356,VALID,1.54492,
2010-05-09, 00:45:05,VALID,1001.23,VALID,0,VALID,90.776,VALID,0,VALID,25.0839,VALID,350,VALID,1.09687,
2010-05-09, 00:46:04,VALID,1001.18,VALID,0,VALID,90.4099,VALID,0,VALID,25.0644,VALID,346,VALID,1.4207,
2010-05-09, 00:47:04,VALID,1001.14,VALID,0,VALID,90.3336,VALID,0,VALID,25.045,VALID,352,VALID,1.41602,
2010-05-09, 00:48:04,VALID,1001.14,VALID,0,VALID,90.1505,VALID,0,VALID,25.0644,VALID,347,VALID,1.22148,
2010-05-09, 00:49:04,VALID,1001.09,VALID,0,VALID,90.3488,VALID,0.100563,VALID,25.0839,VALID,339,VALID,1.45039,
2010-05-09, 00:50:04,VALID,1001.08,VALID,0,VALID,90.3565,VALID,0,VALID,25.0858,VALID,328,VALID,1.13164,
2010-05-09, 00:51:04,VALID,1001.03,VALID,0,VALID,90.3793,VALID,0,VALID,25.0644,VALID,2,VALID,1.26094,
2010-05-09, 00:52:04,VALID,1000.99,VALID,0,VALID,90.3946,VALID,0.100563,VALID,25.045,VALID,353,VALID,0.735156,
2010-05-09, 00:53:04,VALID,1000.95,VALID,0,VALID,90.8295,VALID,0.100563,VALID,25.045,VALID,236,VALID,0.460547,
2010-05-09, 00:54:04,VALID,1000.9,VALID,0,VALID,91.0659,VALID,0,VALID,25.045,VALID,343,VALID,0.710938,
2010-05-09, 00:55:04,VALID,1000.89,VALID,0,VALID,91.3406,VALID,0,VALID,25.0255,VALID,285,VALID,0.215625,
2010-05-09, 00:56:04,VALID,1000.82,VALID,0,VALID,91.5618,VALID,0,VALID,25.0255,VALID,348,VALID,0.290625,
2010-05-09, 00:57:04,VALID,1000.77,VALID,0,VALID,90.9973,VALID,0,VALID,24.9866,VALID,342,VALID,1.25469,
2010-05-09, 00:58:04,VALID,1000.74,VALID,0,VALID,91.3101,VALID,0,VALID,24.9866,VALID,5,VALID,0.921875,
2010-05-09, 00:59:04,VALID,1000.72,VALID,0,VALID,91.1117,VALID,0,VALID,25.0079,VALID,2,VALID,1.09648,
2010-05-09, 01:00:04,VALID,1000.68,VALID,0,VALID,91.2796,VALID,0,VALID,24.9885,VALID,8,VALID,0.739062,
2010-05-09, 01:01:04,VALID,1000.65,VALID,0,VALID,91.394,VALID,0,VALID,24.969,VALID,353,VALID,0.952734,
2010-05-09, 01:02:04,VALID,1000.66,VALID,0,VALID,91.6534,VALID,0,VALID,24.969,VALID,352,VALID,0.541797,
2010-05-09, 01:03:04,VALID,1000.66,VALID,0,VALID,91.8822,VALID,0,VALID,24.9709,VALID,339,VALID,0.880859,
2010-05-09, 01:04:04,VALID,1000.62,VALID,0,VALID,91.2796,VALID,0,VALID,24.9885,VALID,9,VALID,1.80391,
2010-05-09, 01:05:04,VALID,1000.59,VALID,0,VALID,90.4633,VALID,0,VALID,25.0274,VALID,12,VALID,2.44453,
2010-05-09, 01:06:04,VALID,1000.58,VALID,0,VALID,90.3336,VALID,0,VALID,25.0663,VALID,7,VALID,1.89844,
2010-05-09, 01:07:04,VALID,1000.59,VALID,0,VALID,90.0055,VALID,0,VALID,25.0663,VALID,11,VALID,2.00312,
2010-05-09, 01:08:04,VALID,1000.56,VALID,0,VALID,89.5783,VALID,0,VALID,25.1461,VALID,349,VALID,1.23047,
2010-05-09, 01:09:04,VALID,1000.53,VALID,0,VALID,89.5936,VALID,0,VALID,25.1442,VALID,12,VALID,1.37266,
2010-05-09, 01:10:04,VALID,1000.5,VALID,0,VALID,89.6699,VALID,0,VALID,25.1442,VALID,359,VALID,1.15977,
2010-05-09, 01:11:04,VALID,1000.48,VALID,0,VALID,89.7996,VALID,0,VALID,25.1442,VALID,357,VALID,1.0418,
2010-05-09, 01:12:04,VALID,1000.46,VALID,0,VALID,89.7996,VALID,0,VALID,25.1053,VALID,359,VALID,1.15898,
2010-05-09, 01:13:04,VALID,1000.43,VALID,0,VALID,89.7614,VALID,0,VALID,25.1248,VALID,21,VALID,2.81172,
2010-05-09, 01:14:04,VALID,1000.43,VALID,0,VALID,89.8377,VALID,0,VALID,25.1053,VALID,21,VALID,3.02344,
2010-05-09, 01:15:04,VALID,1000.42,VALID,0,VALID,90.1886,VALID,0,VALID,25.1248,VALID,4,VALID,2.18242,
2010-05-09, 01:16:04,VALID,1000.38,VALID,0,VALID,90.5853,VALID,0,VALID,25.0858,VALID,359,VALID,1.78047,
2010-05-09, 01:17:04,VALID,1000.38,VALID,0,VALID,91.0507,VALID,0,VALID,25.0469,VALID,346,VALID,2.32695,
2010-05-09, 01:18:04,VALID,1000.35,VALID,0,VALID,91.7678,VALID,0,VALID,25.0274,VALID,1,VALID,1.15156,
2010-05-09, 01:19:04,VALID,1000.31,VALID,0,VALID,91.9738,VALID,0,VALID,24.9885,VALID,353,VALID,1.44883,
2010-05-09, 01:20:04,VALID,1000.33,VALID,0,VALID,92.2942,VALID,0,VALID,24.9885,VALID,347,VALID,0.789063,
2010-05-09, 01:21:04,VALID,1000.31,VALID,0,VALID,92.7901,VALID,0,VALID,24.9709,VALID,8,VALID,1.19453,
2010-05-09, 01:22:04,VALID,1000.26,VALID,0,VALID,93.0571,VALID,0,VALID,24.93,VALID,357,VALID,1.20508,
2010-05-09, 01:23:04,VALID,1000.29,VALID,0,VALID,93.2707,VALID,0,VALID,24.9319,VALID,351,VALID,1.16289,
2010-05-09, 01:24:04,VALID,1000.28,VALID,0,VALID,93.4614,VALID,0,VALID,24.893,VALID,351,VALID,0.976953,
2010-05-09, 01:25:04,VALID,1000.27,VALID,0,VALID,93.5911,VALID,0,VALID,24.8716,VALID,355,VALID,1.20352,
2010-05-09, 01:26:04,VALID,1000.25,VALID,0,VALID,93.6979,VALID,0,VALID,24.8327,VALID,349,VALID,1.2793,
2010-05-09, 01:27:04,VALID,1000.25,VALID,0,VALID,93.8047,VALID,0,VALID,24.8327,VALID,356,VALID,1.02031,
2010-05-09, 01:28:04,VALID,1000.26,VALID,0,VALID,93.881,VALID,0,VALID,24.8132,VALID,335,VALID,0.718359,
2010-05-09, 01:29:04,VALID,1000.26,VALID,0,VALID,93.9191,VALID,0,VALID,24.8327,VALID,329,VALID,0.635156,
2010-05-09, 01:30:04,VALID,1000.24,VALID,0,VALID,93.9802,VALID,0,VALID,24.8327,VALID,323,VALID,0.514063,
2010-05-09, 01:31:04,VALID,1000.22,VALID,0,VALID,94.0565,VALID,0,VALID,24.8132,VALID,319,VALID,0.301562,
2010-05-09, 01:32:04,VALID,1000.22,VALID,0,VALID,94.1328,VALID,0,VALID,24.8132,VALID,360,VALID,0.696094,
2010-05-09, 01:33:04,VALID,1000.2,VALID,0,VALID,94.0336,VALID,0,VALID,24.854,VALID,343,VALID,0.755078,
2010-05-09, 01:34:04,VALID,1000.16,VALID,0,VALID,94.087,VALID,0,VALID,24.8327,VALID,341,VALID,0.625781,
2010-05-09, 01:35:04,VALID,1000.15,VALID,0,VALID,94.1633,VALID,0,VALID,24.854,VALID,350,VALID,1.03711,
2010-05-09, 01:36:04,VALID,1000.11,VALID,0,VALID,94.1938,VALID,0,VALID,24.8132,VALID,344,VALID,1.18438,
2010-05-09, 01:37:04,VALID,1000.1,VALID,0,VALID,94.2319,VALID,0,VALID,24.7937,VALID,356,VALID,1.1793,
2010-05-09, 01:38:04,VALID,1000.08,VALID,0,VALID,94.3464,VALID,0,VALID,24.7743,VALID,31,VALID,1.4625,
2010-05-09, 01:39:04,VALID,1000.07,VALID,0,VALID,94.4532,VALID,0,VALID,24.7743,VALID,6,VALID,1.10156,
2010-05-09, 01:40:04,VALID,1000.05,VALID,0,VALID,94.4761,VALID,0,VALID,24.7761,VALID,26,VALID,1.82656,
2010-05-09, 01:41:04,VALID,1000.03,VALID,0,VALID,94.3692,VALID,0,VALID,24.7761,VALID,15,VALID,1.7918,
2010-05-09, 01:42:04,VALID,1000.01,VALID,0,VALID,94.2777,VALID,0,VALID,24.7529,VALID,358,VALID,0.680469,
2010-05-09, 01:43:04,VALID,999.991,VALID,0,VALID,94.1633,VALID,0,VALID,24.7761,VALID,357,VALID,1.09297,
2010-05-09, 01:44:04,VALID,999.98,VALID,0,VALID,93.9268,VALID,0,VALID,24.7956,VALID,5,VALID,1.84961,
2010-05-09, 01:45:04,VALID,999.946,VALID,0,VALID,93.9191,VALID,0,VALID,24.7548,VALID,360,VALID,1.19805,
2010-05-09, 01:46:04,VALID,999.93,VALID,0,VALID,93.8886,VALID,0,VALID,24.7353,VALID,360,VALID,2.1293,
2010-05-09, 01:47:04,VALID,999.892,VALID,0,VALID,93.7437,VALID,0,VALID,24.7159,VALID,351,VALID,1.5,
2010-05-09, 01:48:04,VALID,999.878,VALID,0,VALID,93.8505,VALID,0,VALID,24.7177,VALID,341,VALID,0.989844,
2010-05-09, 01:49:04,VALID,999.833,VALID,0,VALID,94.0031,VALID,0,VALID,24.6983,VALID,3,VALID,1.73633,
2010-05-09, 01:50:04,VALID,999.842,VALID,0,VALID,94.1404,VALID,0,VALID,24.6556,VALID,357,VALID,1.05547,
2010-05-09, 01:51:04,VALID,999.803,VALID,0,VALID,94.2167,VALID,0,VALID,24.638,VALID,350,VALID,1.00781,
2010-05-09, 01:52:04,VALID,999.782,VALID,0,VALID,94.3082,VALID,0,VALID,24.6185,VALID,354,VALID,0.482812,
2010-05-09, 01:53:04,VALID,999.771,VALID,0,VALID,94.4303,VALID,0,VALID,24.599,VALID,4,VALID,1.18086,
2010-05-09, 01:54:04,VALID,999.764,VALID,0,VALID,94.4761,VALID,0,VALID,24.599,VALID,343,VALID,0.644141,
2010-05-09, 01:55:04,VALID,999.756,VALID,0,VALID,94.5142,VALID,0,VALID,24.5796,VALID,16,VALID,0.725391,
2010-05-09, 01:56:04,VALID,999.742,VALID,0,VALID,94.5829,VALID,0,VALID,24.5582,VALID,5,VALID,0.641797,
2010-05-09, 01:57:04,VALID,999.719,VALID,0,VALID,94.5447,VALID,0,VALID,24.5601,VALID,9,VALID,0.861719,
2010-05-09, 01:58:04,VALID,999.689,VALID,0,VALID,94.5981,VALID,0,VALID,24.5796,VALID,339,VALID,0.835938,
2010-05-09, 01:59:04,VALID,999.676,VALID,0,VALID,94.5829,VALID,0,VALID,24.5796,VALID,338,VALID,0.484375,
2010-05-09, 02:00:04,VALID,999.677,VALID,0,VALID,94.6134,VALID,0,VALID,24.5601,VALID,348,VALID,0.838281,
2010-05-09, 02:01:04,VALID,999.662,VALID,0,VALID,94.6134,VALID,0,VALID,24.5796,VALID,2,VALID,0.633594,
2010-05-09, 02:02:04,VALID,999.671,VALID,0,VALID,94.56,VALID,0,VALID,24.5814,VALID,357,VALID,0.720312,
2010-05-09, 02:03:04,VALID,999.691,VALID,0,VALID,94.4608,VALID,0,VALID,24.5601,VALID,353,VALID,0.812109,
2010-05-09, 02:04:04,VALID,999.686,VALID,0,VALID,94.415,VALID,0,VALID,24.5601,VALID,348,VALID,0.353906,
2010-05-09, 02:05:04,VALID,999.701,VALID,0,VALID,94.3921,VALID,0,VALID,24.5601,VALID,26,VALID,0.862891,
2010-05-09, 02:06:04,VALID,999.682,VALID,0,VALID,94.3921,VALID,0,VALID,24.5406,VALID,360,VALID,0.518359,
2010-05-09, 02:07:04,VALID,999.683,VALID,0,VALID,94.3387,VALID,0,VALID,24.5406,VALID,354,VALID,1.01563,
2010-05-09, 02:08:04,VALID,999.679,VALID,0,VALID,94.3311,VALID,0,VALID,24.5601,VALID,5,VALID,1.77578,
2010-05-09, 02:09:04,VALID,999.678,VALID,0,VALID,94.3616,VALID,0,VALID,24.5601,VALID,357,VALID,0.955859,
2010-05-09, 02:10:04,VALID,999.681,VALID,0,VALID,94.2319,VALID,0,VALID,24.5601,VALID,351,VALID,0.691406,
2010-05-09, 02:11:04,VALID,999.684,VALID,0,VALID,94.1938,VALID,0,VALID,24.5796,VALID,1,VALID,0.787109,
2010-05-09, 02:12:04,VALID,999.704,VALID,0,VALID,94.1633,VALID,0,VALID,24.5796,VALID,350,VALID,1.06016,
2010-05-09, 02:13:04,VALID,999.681,VALID,0,VALID,94.0412,VALID,0,VALID,24.6009,VALID,340,VALID,0.716406,
2010-05-09, 02:14:04,VALID,999.692,VALID,0,VALID,93.9039,VALID,0,VALID,24.5796,VALID,3,VALID,0.604688,
2010-05-09, 02:15:04,VALID,999.694,VALID,0,VALID,93.8886,VALID,0,VALID,24.5777,VALID,16,VALID,0.711719,
2010-05-09, 02:16:04,VALID,999.679,VALID,0,VALID,93.8886,VALID,0,VALID,24.5777,VALID,358,VALID,0.555859,
2010-05-09, 02:17:04,VALID,999.683,VALID,0,VALID,93.82,VALID,0,VALID,24.5796,VALID,348,VALID,0.794922,
2010-05-09, 02:18:04,VALID,999.656,VALID,0,VALID,93.8429,VALID,0,VALID,24.5582,VALID,301,VALID,0.434766,
2010-05-09, 02:19:04,VALID,999.672,VALID,0,VALID,93.9115,VALID,0,VALID,24.599,VALID,357,VALID,0.695703,
2010-05-09, 02:20:04,VALID,999.681,VALID,0,VALID,93.9268,VALID,0,VALID,24.5796,VALID,350,VALID,0.716016,
2010-05-09, 02:21:04,VALID,999.659,VALID,0,VALID,93.7589,VALID,0,VALID,24.5582,VALID,5,VALID,1.4082,
2010-05-09, 02:22:04,VALID,999.664,VALID,0,VALID,93.3012,VALID,0,VALID,24.5972,VALID,16,VALID,0.908203,
2010-05-09, 02:23:04,VALID,999.682,VALID,0,VALID,92.7977,VALID,0,VALID,24.6166,VALID,341,VALID,0.894141,
2010-05-09, 02:24:04,VALID,999.683,VALID,0,VALID,92.3476,VALID,0,VALID,24.6574,VALID,360,VALID,0.935547,
2010-05-09, 02:25:04,VALID,999.68,VALID,0,VALID,91.4016,VALID,0,VALID,24.675,VALID,348,VALID,0.966016,
2010-05-09, 02:26:04,VALID,999.715,VALID,0,VALID,90.8371,VALID,0,VALID,24.675,VALID,352,VALID,1.42539,
2010-05-09, 02:27:04,VALID,999.711,VALID,0,VALID,90.4938,VALID,0,VALID,24.7353,VALID,345,VALID,1.01289,
2010-05-09, 02:28:04,VALID,999.75,VALID,0,VALID,90.4327,VALID,0,VALID,24.7335,VALID,329,VALID,0.6875,
2010-05-09, 02:29:04,VALID,999.743,VALID,0,VALID,90.3336,VALID,0,VALID,24.7335,VALID,350,VALID,1.12539,
2010-05-09, 02:30:04,VALID,999.767,VALID,0,VALID,90.2039,VALID,0.100563,VALID,24.7335,VALID,352,VALID,0.878906,
2010-05-09, 02:31:04,VALID,999.771,VALID,0,VALID,90.0284,VALID,0,VALID,24.7743,VALID,346,VALID,1.44883,
2010-05-09, 02:32:04,VALID,999.8,VALID,0,VALID,89.3189,VALID,0,VALID,24.7743,VALID,6,VALID,1.53398,
2010-05-09, 02:33:04,VALID,999.782,VALID,0,VALID,89.3876,VALID,0,VALID,24.7937,VALID,338,VALID,0.916016,
2010-05-09, 02:34:04,VALID,999.795,VALID,0,VALID,89.2198,VALID,0,VALID,24.7937,VALID,351,VALID,1.18516,
2010-05-09, 02:35:04,VALID,999.788,VALID,0,VALID,89.0443,VALID,0,VALID,24.7724,VALID,354,VALID,1.42695,
2010-05-09, 02:36:04,VALID,999.783,VALID,0,VALID,88.6781,VALID,0,VALID,24.7724,VALID,360,VALID,1.74219,
2010-05-09, 02:37:04,VALID,999.787,VALID,0,VALID,88.6705,VALID,0,VALID,24.7724,VALID,355,VALID,1.28555,
2010-05-09, 02:38:04,VALID,999.788,VALID,0,VALID,88.5789,VALID,0,VALID,24.7724,VALID,4,VALID,1.61563,
2010-05-09, 02:39:04,VALID,999.793,VALID,0,VALID,88.6094,VALID,0,VALID,24.7937,VALID,12,VALID,0.726953,
2010-05-09, 02:40:04,VALID,999.772,VALID,0,VALID,88.6857,VALID,0,VALID,24.7743,VALID,347,VALID,0.84375,
2010-05-09, 02:41:04,VALID,999.771,VALID,0,VALID,88.762,VALID,0,VALID,24.7743,VALID,348,VALID,0.91875,
2010-05-09, 02:42:04,VALID,999.748,VALID,0,VALID,88.8078,VALID,0.100563,VALID,24.7743,VALID,359,VALID,1.00352,
2010-05-09, 02:43:04,VALID,999.729,VALID,0,VALID,88.8383,VALID,0,VALID,24.7937,VALID,13,VALID,0.983984,
2010-05-09, 02:44:04,VALID,999.728,VALID,0,VALID,89.0061,VALID,0.100563,VALID,24.7937,VALID,351,VALID,0.446875,
2010-05-09, 02:45:04,VALID,999.733,VALID,0,VALID,88.6094,VALID,0,VALID,24.7919,VALID,9,VALID,1.05664,
2010-05-09, 02:46:04,VALID,999.689,VALID,0,VALID,88.8536,VALID,0,VALID,24.8308,VALID,6,VALID,1.17578,
2010-05-09, 02:47:04,VALID,999.688,VALID,0,VALID,88.7849,VALID,0,VALID,24.8113,VALID,15,VALID,0.516797,
2010-05-09, 02:48:04,VALID,999.672,VALID,0,VALID,88.289,VALID,0,VALID,24.8113,VALID,12,VALID,1.25469,
2010-05-09, 02:49:04,VALID,999.649,VALID,0,VALID,87.5872,VALID,0,VALID,24.8503,VALID,10,VALID,1.7332,
2010-05-09, 02:50:04,VALID,999.657,VALID,0,VALID,87.1066,VALID,0,VALID,24.9282,VALID,27,VALID,0.953516,
2010-05-09, 02:51:04,VALID,999.655,VALID,0,VALID,86.4276,VALID,0,VALID,24.9885,VALID,1,VALID,1.12383,
2010-05-09, 02:52:04,VALID,999.684,VALID,0,VALID,86.6488,VALID,0,VALID,24.9866,VALID,18,VALID,0.586328,
2010-05-09, 02:53:04,VALID,999.651,VALID,0,VALID,85.9622,VALID,0,VALID,24.9885,VALID,46,VALID,1.37812,
2010-05-09, 02:54:04,VALID,999.68,VALID,0,VALID,85.6113,VALID,0,VALID,25.0469,VALID,4,VALID,0.994531,
2010-05-09, 02:55:04,VALID,999.671,VALID,0,VALID,84.856,VALID,0,VALID,25.0644,VALID,2,VALID,1.27227,
2010-05-09, 02:56:04,VALID,999.653,VALID,0,VALID,84.2457,VALID,0,VALID,25.1034,VALID,28,VALID,0.840234,
2010-05-09, 02:57:04,VALID,999.66,VALID,0,VALID,84.528,VALID,0,VALID,25.1267,VALID,11,VALID,0.654688,
2010-05-09, 02:58:04,VALID,999.645,VALID,0,VALID,83.6736,VALID,0,VALID,25.1053,VALID,347,VALID,1.17734,
2010-05-09, 02:59:04,VALID,999.647,VALID,0,VALID,83.5591,VALID,0,VALID,25.1248,VALID,358,VALID,1.17891,
2010-05-09, 03:00:04,VALID,999.639,VALID,0,VALID,83.2997,VALID,0,VALID,25.1248,VALID,8,VALID,1.14141,
2010-05-09, 03:01:04,VALID,999.604,VALID,0,VALID,83.3837,VALID,0,VALID,25.1034,VALID,349,VALID,0.648047,
2010-05-09, 03:02:04,VALID,999.618,VALID,0,VALID,82.987,VALID,0,VALID,25.1442,VALID,336,VALID,0.453906,
2010-05-09, 03:03:04,VALID,999.599,VALID,0,VALID,82.7886,VALID,0,VALID,25.1248,VALID,350,VALID,1.17813,
2010-05-09, 03:04:04,VALID,999.61,VALID,0,VALID,82.8725,VALID,0,VALID,25.1034,VALID,352,VALID,0.756641,
2010-05-09, 03:05:04,VALID,999.607,VALID,0,VALID,83.0709,VALID,0,VALID,25.1442,VALID,346,VALID,0.443359,
2010-05-09, 03:06:04,VALID,999.63,VALID,0,VALID,83.2692,VALID,0,VALID,25.1229,VALID,352,VALID,0.598437,
2010-05-09, 03:07:04,VALID,999.643,VALID,0,VALID,83.2845,VALID,0.100563,VALID,25.1053,VALID,329,VALID,0.465625,
2010-05-09, 03:08:04,VALID,999.64,VALID,0,VALID,83.4828,VALID,0,VALID,25.1053,VALID,337,VALID,0.683594,
2010-05-09, 03:09:04,VALID,999.628,VALID,0,VALID,83.5896,VALID,0,VALID,25.0663,VALID,350,VALID,0.555859,
2010-05-09, 03:10:04,VALID,999.66,VALID,0,VALID,84.1618,VALID,0,VALID,25.0682,VALID,350,VALID,0.0484375,
2010-05-09, 03:11:04,VALID,999.676,VALID,0,VALID,84.116,VALID,0,VALID,25.0293,VALID,350,VALID,0.336719,
2010-05-09, 03:12:04,VALID,999.676,VALID,0,VALID,83.7956,VALID,0,VALID,24.9476,VALID,357,VALID,0.278516,
2010-05-09, 03:13:04,VALID,999.676,VALID,0,VALID,83.9329,VALID,0,VALID,24.9495,VALID,355,VALID,0.357812,
2010-05-09, 03:14:04,VALID,999.665,VALID,0,VALID,84.1389,VALID,0.100563,VALID,24.9495,VALID,347,VALID,0.329688,
2010-05-09, 03:15:04,VALID,999.663,VALID,0,VALID,84.2,VALID,0,VALID,24.8892,VALID,347,VALID,0.408984,
2010-05-09, 03:16:04,VALID,999.678,VALID,0,VALID,84.6272,VALID,0,VALID,24.8911,VALID,348,VALID,0.276563,
2010-05-09, 03:17:04,VALID,999.671,VALID,0,VALID,84.6348,VALID,0,VALID,24.8697,VALID,342,VALID,0.456641,
2010-05-09, 03:18:04,VALID,999.674,VALID,0,VALID,84.6424,VALID,0,VALID,24.8522,VALID,343,VALID,0.448438,
2010-05-09, 03:19:04,VALID,999.663,VALID,0,VALID,85.0315,VALID,0,VALID,24.8308,VALID,343,VALID,0.442969,
2010-05-09, 03:20:04,VALID,999.664,VALID,0,VALID,85.5655,VALID,0,VALID,24.7919,VALID,343,VALID,0.191016,
2010-05-09, 03:21:04,VALID,999.657,VALID,0,VALID,86.069,VALID,0,VALID,24.7529,VALID,343,VALID,0.247266,
2010-05-09, 03:22:04,VALID,999.618,VALID,0,VALID,86.7556,VALID,0,VALID,24.7353,VALID,343,VALID,0,
2010-05-09, 03:23:04,VALID,999.62,VALID,0,VALID,87.2515,VALID,0.100563,VALID,24.6361,VALID,343,VALID,0.35625,
2010-05-09, 03:24:04,VALID,999.601,VALID,0,VALID,87.7398,VALID,0,VALID,24.5582,VALID,343,VALID,0.237891,
2010-05-09, 03:25:04,VALID,999.573,VALID,0,VALID,88.1593,VALID,0,VALID,24.5017,VALID,343,VALID,0.402734,
2010-05-09, 03:26:04,VALID,999.546,VALID,0,VALID,88.434,VALID,0,VALID,24.4433,VALID,343,VALID,0.423438,
2010-05-09, 03:27:04,VALID,999.508,VALID,0,VALID,88.6552,VALID,0,VALID,24.3636,VALID,343,VALID,0,
2010-05-09, 03:28:04,VALID,999.489,VALID,0,VALID,88.8841,VALID,0,VALID,24.3459,VALID,343,VALID,0,
2010-05-09, 03:29:04,VALID,999.517,VALID,0,VALID,89.0061,VALID,0,VALID,24.3283,VALID,343,VALID,0,
2010-05-09, 03:30:04,VALID,999.516,VALID,0,VALID,88.7697,VALID,0,VALID,24.2681,VALID,343,VALID,0,
2010-05-09, 03:31:04,VALID,999.508,VALID,0,VALID,89.6012,VALID,0,VALID,24.2468,VALID,343,VALID,0.470313,
2010-05-09, 03:32:04,VALID,999.516,VALID,0,VALID,90.9744,VALID,0,VALID,24.2291,VALID,105,VALID,0.890234,
2010-05-09, 03:33:04,VALID,999.552,VALID,0,VALID,92.134,VALID,0,VALID,24.1318,VALID,101,VALID,0.849219,
2010-05-09, 03:34:04,VALID,999.59,VALID,0,VALID,93.0952,VALID,0,VALID,24.0734,VALID,95,VALID,0.564453,
2010-05-09, 03:35:04,VALID,999.582,VALID,0,VALID,93.4996,VALID,0.100563,VALID,24.0132,VALID,95,VALID,0.741797,
2010-05-09, 03:36:04,VALID,999.604,VALID,0,VALID,93.8276,VALID,0.100563,VALID,23.9548,VALID,122,VALID,0.352734,
2010-05-09, 03:37:04,VALID,999.635,VALID,0,VALID,94.1251,VALID,0,VALID,23.9566,VALID,122,VALID,0.142969,
2010-05-09, 03:38:04,VALID,999.622,VALID,0,VALID,94.3006,VALID,0,VALID,23.9159,VALID,122,VALID,0.00429688,
2010-05-09, 03:39:04,VALID,999.626,VALID,0,VALID,94.4303,VALID,0,VALID,23.8964,VALID,122,VALID,0,
2010-05-09, 03:40:04,VALID,999.63,VALID,0,VALID,94.5295,VALID,0,VALID,23.8769,VALID,122,VALID,0.00195313,
2010-05-09, 03:41:04,VALID,999.632,VALID,0,VALID,94.5676,VALID,0,VALID,23.8787,VALID,122,VALID,0.0167969,
2010-05-09, 03:42:04,VALID,999.616,VALID,0,VALID,94.6591,VALID,0,VALID,23.8593,VALID,119,VALID,0.426172,
2010-05-09, 03:43:04,VALID,999.615,VALID,0,VALID,94.7049,VALID,0,VALID,23.8185,VALID,119,VALID,0.407813,
2010-05-09, 03:44:04,VALID,999.638,VALID,0,VALID,94.6363,VALID,0,VALID,23.8009,VALID,118,VALID,0.341406,
2010-05-09, 03:45:04,VALID,999.647,VALID,0,VALID,94.7812,VALID,0,VALID,23.8009,VALID,106,VALID,0.490234,
2010-05-09, 03:46:04,VALID,999.638,VALID,0,VALID,94.8956,VALID,0,VALID,23.7814,VALID,104,VALID,0.275391,